This demonstration page uses our WeatherBlox Daily Observations layout. Learn more.

Left ArrowRight Arrow

Hourly Observations for May 16, 2020

Temp ( °F °C ) Dew Point ( °F °C ) Humidity (%) Winds ( mph kmh ) Pressure ( in mb ) Visibility ( mi km ) Precip ( " mm )
12:52 am 00:52 Clear 62 16.7 60 15.6 93 93 SE 8 13 29.90 1012 10 16 0.00 0.00
1:45 am 01:45 Mostly Cloudy 62 16.7 61 16.1 96 96 SE 12 19 29.89 1012 10 16 0.00 0.00
1:52 am 01:52 Mostly Cloudy 62 16.7 60 15.6 93 93 SE 10 17 29.88 1012 10 16 0.00 0.00
2:22 am 02:22 Partly Cloudy 62 16.7 60 15.6 93 93 SE 9 15 29.87 1011 10 16 0.00 0.00
2:44 am 02:44 Mostly Clear 62 16.7 61 16.1 96 96 ESE 8 13 29.86 1011 10 16 0.00 0.00
2:52 am 02:52 Mostly Clear 62 16.7 60 15.6 93 93 ESE 8 13 29.85 1011 10 16 0.00 0.00
3:36 am 03:36 Mostly Cloudy 62 16.7 61 16.1 96 96 SE 9 15 29.88 1012 10 16 0.00 0.00
3:52 am 03:52 Cloudy 63 17.2 61 16.1 93 93 SSE 9 15 29.88 1012 10 16 0.00 0.00
4:03 am 04:03 Cloudy 63 17.2 61 16.1 93 93 SE 9 15 29.89 1012 10 16 0.00 0.00
4:32 am 04:32 Cloudy 63 17.2 61 16.1 93 93 SE 9 15 29.88 1012 10 16 0.00 0.00
4:42 am 04:42 Mostly Cloudy 62 16.7 61 16.1 96 96 SE 8 13 29.87 1011 10 16 0.00 0.00
4:52 am 04:52 Partly Cloudy 63 17.2 61 16.1 93 93 SE 8 13 29.87 1011 10 16 0.00 0.00
5:03 am 05:03 Mostly Cloudy 63 17.2 62 16.7 97 97 SE 9 15 29.87 1011 10 16 0.00 0.00
5:14 am 05:14 Mostly Cloudy 63 17.2 62 16.7 97 97 SE 9 15 29.87 1011 10 16 0.00 0.00
5:52 am 05:52 Cloudy 64 17.8 63 17.2 96 96 SE 9 15 29.88 1012 9 14 0.00 0.00
6:52 am 06:52 Cloudy 64 17.8 64 17.8 100 100 SE 13 20 29.88 1012 8 13 0.00 0.00
7:44 am 07:44 Mostly Cloudy 65 18.3 64 17.8 97 97 SE 14 22 29.87 1012 10 16 0.00 0.00
7:52 am 07:52 Partly Cloudy 65 18.3 63 17.2 93 93 SE 13 20 29.88 1012 10 16 0.00 0.00
8:52 am 08:52 Partly Cloudy 66 18.9 62 16.7 87 87 SE 13 20 29.88 1012 10 16 0.00 0.00
9:52 am 09:52 Cloudy with Light Rain 64 17.8 62 16.7 93 93 ESE 7 11 29.89 1012 10 16 0.00 0.00
10:52 am 10:52 Mostly Sunny 69 20.6 64 17.8 84 84 SE 10 17 29.89 1012 10 16 0.00 0.00
11:52 am 11:52 Partly Cloudy 72 22.2 66 18.9 82 82 ESE 7 11 29.88 1012 10 16 0.00 0.00
12:12 pm 12:12 Mostly Cloudy 72 22.2 65 18.3 79 79 SSE 9 15 29.86 1011 10 16 0.00 0.00
12:52 pm 12:52 Mostly Cloudy 74 23.3 66 18.9 76 76 SSE 13 20 29.88 1012 10 16 0.00 0.00
1:14 pm 13:14 Mostly Cloudy 73 22.8 66 18.9 79 79 SSE 12 19 29.85 1011 10 16 0.00 0.00
1:23 pm 13:23 Mostly Cloudy 74 23.3 65 18.3 74 74 SSE 9 15 29.84 1010 10 16 0.00 0.00
1:52 pm 13:52 Cloudy 73 22.8 65 18.3 76 76 SE 10 17 29.86 1011 10 16 0.00 0.00
2:52 pm 14:52 Partly Cloudy 75 23.9 65 18.3 71 71 SSE 8 13 29.83 1010 10 16 0.00 0.00
3:52 pm 15:52 Mostly Sunny 74 23.3 65 18.3 74 74 S 7 11 29.82 1010 10 16 0.00 0.00
4:52 pm 16:52 Partly Cloudy 75 23.9 65 18.3 71 71 SE 9 15 29.80 1009 10 16 0.00 0.00
5:52 pm 17:52 Sunny 72 22.2 64 17.8 76 76 SE 8 13 29.80 1009 10 16 0.00 0.00
6:52 pm 18:52 Mostly Cloudy with Light Rain 70 21.1 66 18.9 87 87 SE 10 17 29.80 1009 10 16 0.00 0.00
7:52 pm 19:52 Sunny 67 19.4 63 17.2 87 87 SE 6 9 29.82 1010 10 16 0.00 0.00
8:52 pm 20:52 Clear 66 18.9 63 17.2 90 90 ESE 6 9 29.82 1010 10 16 0.00 0.00
9:52 pm 21:52 Partly Cloudy 66 18.9 63 17.2 90 90 SE 10 17 29.84 1010 10 16 0.00 0.00
10:52 pm 22:52 Mostly Cloudy with Light Rain 66 18.9 65 18.3 96 96 SSE 12 19 29.83 1010 10 16 0.00 0.00
11:52 pm 23:52 Mostly Cloudy with Light Rain 66 18.9 65 18.3 96 96 SSE 9 15 29.80 1009 10 16 0.00 0.00

Powered by AerisWeather